Simultaneous Nadir Overpasses (SNOs) Predictions

Prediction of SNOs between METOP-B and TERRA Satellite Orbit:

Table of predicted SNOs for the next 14.0 days since TLE Epoch: 4/3/2021
Index Date (METOP-B) Time (METOP-B) Lat,Lon (METOP-B) SZA (METOP-B ) Date (TERRA) Time (TERRA) Lat,Lon (TERRA) SZA (TERRA ) Distance(km) Time Diff (sec)
1 04/04/2021 14:53:06 81.31, 3.05 78.00 04/04/2021 14:53:45 81.31, 3.17 78.03 2.10 39
2 04/04/2021 15:43:46 -81.31, 170.57 102.00 04/04/2021 15:43:12 -81.31, 170.71 102.00 2.28 34
3 04/07/2021 10:27:26 81.31, 69.37 76.95 04/07/2021 10:27:58 81.31, 69.54 76.99 2.93 32
4 04/07/2021 11:18:05 -81.32,-122.72 102.99 04/07/2021 11:17:25 -81.31,-122.89 103.04 3.13 40
5 04/10/2021 06:01:46 81.31, 136.06 75.97 04/10/2021 06:02:12 81.31, 135.88 75.96 3.06 26
6 04/10/2021 06:52:25 -81.32, -56.02 103.98 04/10/2021 06:51:38 -81.32, -56.15 104.01 2.16 47
7 04/13/2021 01:36:07 81.31,-157.65 74.95 04/13/2021 01:36:26 81.30,-157.80 74.93 2.72 19
8 04/13/2021 02:26:46 -81.32, 10.27 105.00 04/13/2021 02:25:52 -81.32, 10.20 105.03 1.28 54
9 04/15/2021 21:10:27 81.31, -90.99 74.00 04/15/2021 21:10:39 81.31, -91.13 73.98 2.38 12



Historial Predications of SNOs between METOP-B and TERRA
